EW2348 Weather Reports


Display with metric or nautical units.
time (UTC)temp
F
wind
direction
speed
MPH
gust
MPH
rain 1hr
in
rain 24hr
in
rain mn
in
humidity
%
barometer
mb
20160624201930 85 309 2.0 5.0 0.00 0.06 0.02 55 1012.1
20160624201730 86 303 1.0 5.0 0.00 0.06 0.02 60 1012.1
20160624201632 86 293 2.0 5.0 0.00 0.06 0.02 56 1012.0
20160624201530 86 300 1.0 5.0 0.00 0.06 0.02 56 1011.9
20160624201430 85 301 1.0 5.0 0.00 0.06 0.02 56 1012.0
20160624201329 85 302 1.0 5.0 0.00 0.06 0.02 56 1012.2
20160624201230 85 306 2.0 5.0 0.00 0.06 0.02 58 1012.0
20160624200730 85 181 0.0 1.0 0.00 0.06 0.02 52 1012.2
20160624200529 85 181 0.0 2.0 0.00 0.06 0.02 52 1011.9
20160624200330 85 181 0.0 2.0 0.00 0.06 0.02 52 1012.0
20160624200230 85 181 0.0 2.0 0.00 0.06 0.02 52 1012.1
20160624200029 85 181 0.0 3.0 0.00 0.06 0.02 52 1012.0
20160624195730 83 214 0.0 5.0 0.00 0.06 0.02 55 1012.1
20160624195629 86 248 0.0 5.0 0.00 0.06 0.02 62 1012.0
20160624195430 85 256 0.0 5.0 0.00 0.06 0.02 57 1012.0
20160624195330 84 264 0.0 5.0 0.00 0.06 0.02 56 1012.1
20160624195129 86 281 2.0 5.0 0.00 0.06 0.02 57 1012.0
20160624195030 85 290 1.0 5.0 0.00 0.06 0.02 64 1012.1
20160624194830 84 294 3.0 5.0 0.00 0.06 0.02 55 1012.2
20160624194530 85 300 1.0 4.0 0.00 0.06 0.02 61 1012.1
20160624194430 83 306 1.0 4.0 0.00 0.06 0.02 60 1012.1
20160624193829 83 297 1.0 5.0 0.00 0.06 0.02 58 1012.1
20160624193630 84 309 1.0 5.0 0.00 0.06 0.02 58 1012.2
20160624193430 84 319 1.0 5.0 0.00 0.06 0.02 58 1012.0
20160624193329 84 320 1.0 5.0 0.00 0.06 0.02 57 1012.0
20160624193230 83 321 1.0 5.0 0.00 0.06 0.02 59 1012.1
20160624193130 83 328 3.0 5.0 0.00 0.06 0.02 58 1012.0
20160624193030 83 338 3.0 5.0 0.00 0.06 0.02 60 1012.1
20160624192829 83 10 1.0 5.0 0.00 0.06 0.02 58 1012.1
20160624192630 85 52 3.0 5.0 0.00 0.06 0.02 58 1012.1
20160624192529 85 66 3.0 5.0 0.00 0.06 0.02 57 1012.1
20160624192230 84 66 0.0 3.0 0.00 0.06 0.02 59 1012.1
20160624192030 82 34 1.0 4.0 0.00 0.06 0.02 63 1012.0
20160624191630 83 320 0.0 4.0 0.00 0.06 0.02 60 1012.1
20160624191530 84 315 1.0 4.0 0.00 0.06 0.02 57 1012.1
20160624191329 83 301 0.0 4.0 0.00 0.06 0.02 61 1012.0
20160624191229 82 291 2.0 4.0 0.00 0.06 0.02 61 1012.1
20160624191130 82 294 1.0 4.0 0.00 0.06 0.02 63 1012.1
20160624190829 84 282 0.0 5.0 0.00 0.06 0.02 64 1012.2
20160624190729 84 274 1.0 5.0 0.00 0.06 0.02 62 1012.0
20160624190629 84 271 1.0 5.0 0.00 0.06 0.02 60 1012.0
20160624190430 84 247 0.0 5.0 0.00 0.06 0.02 62 1012.0
20160624190329 83 248 1.0 5.0 0.00 0.06 0.02 60 1012.1
20160624185930 83 208 0.0 5.0 0.00 0.06 0.02 63 1012.0
20160624185729 84 235 1.0 5.0 0.00 0.06 0.02 69 1012.1
20160624185629 85 241 3.0 5.0 0.00 0.06 0.02 66 1012.1
20160624185530 84 270 1.0 3.0 0.00 0.06 0.02 67 1012.0
20160624185229 82 282 0.0 3.0 0.00 0.06 0.02 67 1012.0
20160624185030 81 283 0.0 3.0 0.00 0.06 0.02 67 1012.1
20160624184930 81 285 1.0 3.0 0.00 0.06 0.02 67 1011.8
20160624184829 81 289 1.0 3.0 0.00 0.06 0.02 66 1012.1
20160624184630 82 302 1.0 3.0 0.00 0.06 0.02 64 1012.0
20160624184329 83 225 0.0 2.0 0.00 0.06 0.02 65 1012.1
20160624184130 82 261 0.0 5.0 0.00 0.06 0.02 61 1012.1
20160624183930 83 277 0.0 5.0 0.00 0.06 0.02 58 1012.0
20160624183829 83 276 0.0 5.0 0.00 0.06 0.02 59 1012.2
20160624183730 84 275 0.0 5.0 0.00 0.06 0.02 61 1012.2
20160624183630 84 274 0.0 5.0 0.00 0.06 0.02 61 1012.0
20160624183529 83 274 0.0 5.0 0.00 0.07 0.02 62 1012.1
20160624183230 82 302 1.0 5.0 0.00 0.07 0.02 63 1012.3
20160624183130 83 301 3.0 5.0 0.00 0.07 0.02 65 1012.1
20160624183029 84 304 1.0 4.0 0.00 0.07 0.02 64 1011.9
20160624182930 84 303 1.0 4.0 0.00 0.07 0.02 66 1011.8
20160624182830 83 305 0.0 4.0 0.00 0.07 0.02 68 1012.0
20160624182730 83 313 1.0 4.0 0.00 0.07 0.02 72 1011.8
20160624182629 83 313 1.0 4.0 0.00 0.07 0.02 73 1012.0
20160624182529 81 309 0.0 6.0 0.00 0.07 0.02 69 1012.1
20160624182129 80 301 2.0 6.0 0.00 0.07 0.02 71 1011.8
20160624182030 80 299 3.0 6.0 0.00 0.07 0.02 73 1012.1
20160624181729 80 307 3.0 6.0 0.01 0.07 0.02 72 1012.1
20160624181530 80 308 3.0 4.0 0.01 0.07 0.02 69 1011.9
20160624181430 81 297 3.0 4.0 0.01 0.07 0.02 68 1012.1
20160624181135 83 288 2.0 4.0 0.01 0.07 0.02 70 1012.2
20160624181034 83 282 1.0 4.0 0.01 0.07 0.02 71 1012.1
20160624180935 82 284 1.0 4.0 0.01 0.07 0.02 68 1012.1
20160624180834 82 282 1.0 4.0 0.01 0.07 0.02 66 1011.9
20160624180735 81 279 2.0 3.0 0.01 0.07 0.02 71 1012.1
20160624180634 81 288 2.0 3.0 0.01 0.07 0.02 71 1012.0
20160624180535 81 292 2.0 3.0 0.01 0.07 0.02 71 1012.0
20160624180435 81 298 2.0 3.0 0.01 0.07 0.02 71 1011.9
20160624180334 81 300 2.0 3.0 0.01 0.07 0.02 71 1011.9
20160624180234 81 302 2.0 3.0 0.01 0.07 0.02 71 1011.9
20160624175834 80 304 1.0 4.0 0.01 0.07 0.02 72 1012.1
20160624175735 80 295 2.0 4.0 0.01 0.07 0.02 72 1012.0
20160624175635 80 288 2.0 4.0 0.01 0.07 0.02 72 1012.0
20160624175336 80 288 1.0 4.0 0.01 0.07 0.02 74 1012.2
20160624175236 80 293 1.0 4.0 0.01 0.07 0.02 72 1012.2
20160624175136 80 308 2.0 4.0 0.01 0.07 0.02 72 1012.1
20160624175035 80 356 3.0 4.0 0.01 0.07 0.02 71 1012.2
20160624174835 82 89 0.0 3.0 0.01 0.07 0.02 72 1012.1
20160624174737 82 78 0.0 3.0 0.01 0.07 0.02 71 1012.1
20160624174535 82 62 1.0 3.0 0.01 0.07 0.02 67 1012.0
20160624174435 82 65 1.0 3.0 0.01 0.07 0.02 65 1012.0
20160624174336 81 73 0.0 3.0 0.01 0.07 0.02 65 1011.9
20160624174235 80 76 0.0 3.0 0.01 0.07 0.02 66 1011.8
20160624174135 80 68 1.0 3.0 0.01 0.07 0.02 65 1012.0
20160624174035 81 44 1.0 3.0 0.01 0.07 0.02 64 1011.9
20160624173934 82 22 1.0 3.0 0.01 0.07 0.02 64 1011.9
20160624173735 82 19 1.0 3.0 0.01 0.07 0.02 65 1012.0
20160624173535 82 15 2.0 5.0 0.01 0.07 0.02 66 1012.0
20160624173436 82 13 2.0 5.0 0.01 0.07 0.02 65 1011.7
20160624173334 82 5 2.0 6.0 0.01 0.07 0.02 66 1011.7
20160624173135 82 349 2.0 6.0 0.01 0.07 0.02 70 1011.8
20160624173034 82 351 1.0 6.0 0.01 0.07 0.02 66 1011.7
20160624172935 81 352 1.0 6.0 0.01 0.07 0.02 67 1011.8
20160624172835 81 346 1.0 6.0 0.01 0.07 0.02 70 1011.8
20160624172636 80 338 2.0 6.0 0.01 0.07 0.02 70 1011.9
20160624172435 80 323 5.0 6.0 0.01 0.07 0.02 70 1011.8
20160624172135 80 329 3.0 6.0 0.01 0.07 0.02 70 1011.7
20160624172034 81 321 3.0 6.0 0.00 0.06 0.01 69 1011.9
20160624171735 81 311 2.0 6.0 0.00 0.06 0.01 73 1011.8
20160624171634 80 316 3.0 6.0 0.00 0.06 0.01 73 1011.9
20160624171537 80 322 2.0 6.0 0.00 0.06 0.01 73 1011.9
20160624171134 80 211 0.0 2.0 0.00 0.06 0.01 74 1012.1
20160624171034 80 203 1.0 2.0 0.00 0.06 0.01 74 1011.9
20160624170735 79 171 0.0 4.0 0.00 0.06 0.01 76 1012.1
20160624170334 79 159 0.0 4.0 0.00 0.06 0.01 77 1012.1
20160624170234 79 157 1.0 4.0 0.00 0.06 0.01 76 1012.1
20160624170135 78 152 0.0 4.0 0.00 0.06 0.01 77 1012.1
20160624165935 78 148 1.0 4.0 0.00 0.06 0.01 77 1012.1
20160624165834 77 145 2.0 4.0 0.00 0.06 0.01 74 1012.2
20160624165734 78 143 3.0 4.0 0.00 0.06 0.01 74 1012.2
20160624165634 79 141 3.0 4.0 0.00 0.06 0.01 76 1012.0
20160624165435 80 152 1.0 2.0 0.00 0.06 0.01 76 1012.0
20160624165335 80 153 1.0 3.0 0.00 0.06 0.01 77 1012.2
20160624165235 78 158 1.0 3.0 0.00 0.06 0.01 77 1012.0
20160624165134 79 161 1.0 3.0 0.00 0.06 0.01 76 1012.1
20160624165034 78 165 1.0 3.0 0.00 0.06 0.01 75 1012.0
20160624164935 79 166 1.0 3.0 0.00 0.06 0.01 75 1012.0
20160624164535 78 167 0.0 3.0 0.00 0.06 0.01 78 1012.2
20160624164434 79 172 1.0 3.0 0.00 0.06 0.01 77 1012.1
20160624164335 79 171 1.0 3.0 0.00 0.06 0.01 77 1012.2
20160624164134 80 181 1.0 2.0 0.00 0.06 0.01 75 1011.9
20160624164035 80 181 0.0 1.0 0.00 0.06 0.01 74 1012.1
20160624163735 80 260 0.0 4.0 0.00 0.06 0.01 79 1012.2
20160624163636 80 276 0.0 4.0 0.00 0.06 0.01 78 1012.4
20160624163535 79 289 0.0 4.0 0.00 0.06 0.01 78 1012.3
20160624163335 79 311 0.0 4.0 0.00 0.06 0.01 82 1012.1
20160624163034 78 308 0.0 4.0 0.00 0.06 0.01 82 1012.3
20160624162935 77 308 0.0 4.0 0.00 0.06 0.01 82 1012.1
20160624162835 77 307 1.0 4.0 0.00 0.06 0.01 82 1012.1
20160624162635 77 317 3.0 4.0 0.00 0.06 0.01 81 1012.2
20160624162336 79 304 2.0 3.0 0.00 0.06 0.01 83 1012.0
20160624162234 78 324 1.0 4.0 0.00 0.06 0.01 83 1012.2
20160624162030 78 336 0.0 5.0 0.00 0.06 0.01 84 1012.2
20160624161930 78 331 0.0 5.0 0.00 0.06 0.01 84 1012.0
20160624161729 78 330 0.0 5.0 0.00 0.06 0.01 86 1012.2
20160624161629 77 328 1.0 5.0 0.00 0.06 0.01 86 1012.1
20160624161530 77 320 2.0 5.0 0.00 0.06 0.01 85 1012.1
20160624161430 77 317 1.0 5.0 0.00 0.06 0.01 83 1012.0
20160624161329 77 316 2.0 5.0 0.00 0.06 0.01 84 1012.0
20160624161229 77 302 2.0 5.0 0.00 0.06 0.01 83 1012.0
20160624161130 77 285 3.0 3.0 0.00 0.06 0.01 83 1012.0
20160624161030 78 274 2.0 3.0 0.00 0.06 0.01 84 1012.0
20160624160929 78 270 0.0 2.0 0.00 0.06 0.01 84 1012.0
20160624160829 77 270 0.0 2.0 0.00 0.06 0.01 84 1012.1
20160624160730 77 270 1.0 2.0 0.00 0.06 0.01 87 1012.0
20160624160630 77 274 1.0 2.0 0.00 0.06 0.01 87 1012.1
20160624160429 77 284 1.0 5.0 0.00 0.06 0.01 87 1012.0
20160624160330 77 285 1.0 5.0 0.00 0.06 0.01 87 1012.0
20160624160229 77 287 1.0 5.0 0.00 0.06 0.01 87 1012.1
20160624160129 77 290 1.0 5.0 0.00 0.06 0.01 87 1012.1
20160624155830 76 295 0.0 5.0 0.00 0.06 0.01 89 1011.9
20160624155729 76 293 0.0 5.0 0.00 0.06 0.01 89 1012.1
20160624155629 76 287 3.0 5.0 0.00 0.06 0.01 89 1011.9
20160624155129 75 277 1.0 2.0 0.00 0.06 0.01 91 1012.0
20160624154929 76 278 1.0 5.0 0.00 0.06 0.01 91 1011.9
20160624154829 75 283 0.0 5.0 0.00 0.06 0.01 92 1011.7
20160624154729 75 300 0.0 5.0 0.00 0.06 0.01 92 1012.1
20160624154329 75 314 1.0 5.0 0.00 0.06 0.01 93 1011.9
20160624154230 75 314 0.0 5.0 0.00 0.06 0.01 93 1011.9
20160624154030 74 319 1.0 5.0 0.00 0.06 0.01 91 1011.8
20160624153730 76 298 2.0 4.0 0.00 0.06 0.01 91 1011.9
20160624153529 75 299 0.0 4.0 0.00 0.06 0.01 91 1011.8
20160624153429 75 294 1.0 4.0 0.00 0.06 0.01 93 1011.8
20160624153330 75 298 1.0 5.0 0.00 0.06 0.01 93 1011.8
20160624153130 75 305 1.0 5.0 0.00 0.06 0.01 93 1011.7
20160624152929 74 303 1.0 5.0 0.00 0.06 0.01 95 1011.6
20160624152629 75 305 3.0 5.0 0.00 0.06 0.01 95 1011.5
20160624152529 75 310 0.0 5.0 0.00 0.06 0.01 94 1011.7
20160624152430 74 311 2.0 5.0 0.00 0.06 0.01 93 1011.7
20160624152330 74 313 4.0 5.0 0.00 0.06 0.01 94 1011.7
20160624152129 75 295 1.0 3.0 0.00 0.06 0.01 95 1011.4
20160624151929 74 288 1.0 3.0 0.00 0.06 0.01 95 1011.6
20160624151830 74 273 1.0 3.0 0.00 0.06 0.01 94 1011.6
20160624151729 74 270 1.0 3.0 0.00 0.06 0.01 94 1011.6
20160624151529 74 255 1.0 3.0 0.00 0.06 0.01 94 1011.6
20160624151330 74 242 1.0 3.0 0.00 0.06 0.01 95 1011.8
20160624151230 74 257 1.0 3.0 0.00 0.06 0.01 96 1011.7
20160624151129 74 272 0.0 3.0 0.00 0.06 0.01 96 1011.5
20160624150929 74 278 1.0 3.0 0.00 0.06 0.01 97 1011.7
20160624150830 73 277 0.0 3.0 0.00 0.06 0.01 97 1011.6
20160624150729 74 282 1.0 3.0 0.00 0.06 0.01 98 1011.5
20160624150529 73 279 1.0 4.0 0.00 0.06 0.01 97 1011.7
20160624150330 72 278 1.0 4.0 0.00 0.06 0.01 97 1011.5
20160624150129 72 274 0.0 4.0 0.00 0.06 0.01 97 1011.4
20160624150029 72 276 0.0 4.0 0.00 0.06 0.01 97 1011.5
20160624145729 71 273 2.0 4.0 0.00 0.06 0.01 98 1011.4
20160624145629 72 270 1.0 4.0 0.00 0.06 0.01 97 1011.3
20160624145029 71 267 2.0 3.0 0.00 0.06 0.01 98 1011.5
20160624144730 71 268 1.0 4.0 0.00 0.06 0.01 98 1011.2
20160624144329 71 274 1.0 4.0 0.00 0.06 0.01 98 1011.4
20160624143829 71 266 1.0 6.0 0.00 0.06 0.01 98 1011.3
20160624143629 71 263 3.0 6.0 0.00 0.06 0.01 98 1011.3
20160624143430 72 263 0.0 6.0 0.00 0.06 0.01 97 1011.3
20160624143329 72 260 0.0 6.0 0.00 0.06 0.01 97 1011.3
20160624143229 72 266 1.0 6.0 0.00 0.06 0.01 97 1011.3
20160624143030 71 287 2.0 6.0 0.00 0.06 0.01 98 1011.2
20160624142929 73 293 3.0 6.0 0.00 0.06 0.01 97 1011.2
20160624142829 72 294 1.0 5.0 0.00 0.06 0.01 97 1011.3
20160624142229 70 295 3.0 5.0 0.00 0.06 0.01 98 1011.3
20160624142130 71 287 4.0 5.0 0.00 0.06 0.01 98 1011.3
20160624141929 70 285 1.0 4.0 0.00 0.06 0.01 98 1011.2
20160624141829 70 282 3.0 4.0 0.00 0.06 0.01 98 1011.2
20160624141729 70 280 1.0 4.0 0.00 0.06 0.01 98 1011.2
20160624141630 70 281 1.0 4.0 0.00 0.06 0.01 98 1011.3
20160624141529 70 283 2.0 4.0 0.00 0.06 0.01 98 1011.2
20160624141429 70 282 1.0 4.0 0.00 0.06 0.01 98 1011.2
20160624141329 70 278 1.0 4.0 0.00 0.06 0.01 98 1011.2
20160624141229 70 270 0.0 4.0 0.00 0.06 0.01 98 1011.3
20160624141130 70 270 0.0 4.0 0.00 0.06 0.01 98 1011.2
20160624141030 70 270 0.0 4.0 0.00 0.06 0.01 98 1011.3
20160624140829 70 279 2.0 3.0 0.00 0.06 0.01 98 1011.4
20160624140530 69 312 0.0 1.0 0.00 0.06 0.01 99 1011.3
20160624140329 69 299 0.0 1.0 0.00 0.06 0.01 99 1011.4
20160624140229 69 292 0.0 1.0 0.00 0.06 0.01 99 1011.2
20160624140129 69 292 0.0 1.0 0.00 0.06 0.01 99 1011.2
20160624135929 69 288 0.0 1.0 0.00 0.06 0.01 99 1011.1
20160624135729 69 283 0.0 1.0 0.00 0.06 0.01 99 1011.1
20160624135629 69 283 0.0 1.0 0.00 0.06 0.01 99 1011.1
20160624135229 69 308 0.0 1.0 0.00 0.06 0.01 99 1011.2
20160624135029 69 347 0.0 4.0 0.00 0.06 0.01 99 1011.1
20160624134930 69 343 1.0 4.0 0.00 0.06 0.01 99 1011.2
20160624134829 69 340 0.0 4.0 0.00 0.06 0.01 99 1011.2
20160624134729 69 329 0.0 4.0 0.00 0.06 0.01 99 1011.1
20160624134629 69 327 0.0 4.0 0.00 0.06 0.01 99 1011.2
20160624134530 69 314 0.0 4.0 0.00 0.06 0.01 99 1011.1
20160624134430 69 306 0.0 4.0 0.00 0.06 0.01 99 1011.0
20160624134130 69 290 1.0 4.0 0.00 0.06 0.01 99 1011.0
20160624134030 69 269 1.0 3.0 0.00 0.06 0.01 99 1011.0
20160624133729 69 252 0.0 3.0 0.00 0.06 0.01 99 1011.1
20160624133630 69 238 0.0 3.0 0.00 0.06 0.01 99 1011.4
20160624133429 69 238 1.0 3.0 0.00 0.06 0.01 99 1011.2
20160624133329 69 226 1.0 3.0 0.00 0.06 0.01 99 1011.2
20160624133230 69 199 0.0 2.0 0.00 0.06 0.01 99 1011.1
20160624133129 69 188 0.0 2.0 0.00 0.06 0.01 99 1011.2
20160624133029 69 189 0.0 2.0 0.00 0.06 0.01 99 1011.1
20160624132929 69 190 0.0 2.0 0.00 0.06 0.01 99 1011.1
20160624132829 69 197 0.0 2.0 0.00 0.06 0.01 99 1011.1
20160624132730 69 204 1.0 2.0 0.00 0.06 0.01 99 1011.1
20160624132429 69 295 0.0 3.0 0.00 0.06 0.01 99 1011.0
20160624132230 69 294 1.0 3.0 0.00 0.06 0.01 99 1010.9
20160624131929 69 286 0.0 3.0 0.00 0.06 0.01 99 1010.9
20160624131830 69 285 0.0 3.0 0.00 0.06 0.01 99 1011.0
20160624131330 69 270 0.0 2.0 0.00 0.06 0.01 99 1011.0
20160624131230 69 272 0.0 2.0 0.00 0.06 0.01 99 1010.9
20160624131029 69 299 1.0 2.0 0.00 0.06 0.01 99 1010.7
20160624130830 69 323 1.0 2.0 0.00 0.06 0.01 99 1010.7
20160624130729 70 337 0.0 3.0 0.00 0.06 0.01 98 1010.5
20160624130329 69 310 0.0 3.0 0.00 0.06 0.01 99 1010.6
20160624130230 69 309 0.0 3.0 0.00 0.06 0.01 99 1010.4
20160624130029 69 292 0.0 3.0 0.00 0.06 0.01 99 1010.4
20160624125929 69 288 1.0 3.0 0.00 0.06 0.01 99 1010.5
20160624125829 69 286 1.0 3.0 0.00 0.06 0.01 99 1010.6
20160624125730 69 273 2.0 3.0 0.00 0.06 0.01 99 1010.6
20160624125529 69 270 1.0 2.0 0.00 0.06 0.01 99 1010.5
20160624125329 70 285 0.0 1.0 0.00 0.06 0.01 99 1010.5
20160624125130 69 330 1.0 1.0 0.00 0.06 0.01 99 1010.4
20160624124929 69 20 0.0 1.0 0.00 0.06 0.01 99 1010.5
20160624124629 70 13 0.0 1.0 0.00 0.06 0.01 99 1010.4
20160624124429 70 20 0.0 2.0 0.00 0.06 0.01 98 1010.1
20160624124329 70 34 0.0 3.0 0.00 0.06 0.01 99 1010.3
20160624124230 70 55 0.0 3.0 0.00 0.06 0.01 99 1010.2
20160624124129 69 63 0.0 3.0 0.00 0.06 0.01 99 1010.2
20160624124029 70 62 0.0 3.0 0.00 0.06 0.01 99 1010.2
20160624123929 70 53 0.0 3.0 0.00 0.06 0.01 99 1010.2
20160624123629 69 75 1.0 3.0 0.00 0.06 0.01 99 1010.2
20160624123429 69 84 1.0 3.0 0.00 0.06 0.01 99 1010.2
20160624123129 69 12 0.0 3.0 0.00 0.06 0.01 99 1010.3
20160624123030 69 356 0.0 3.0 0.00 0.06 0.01 99 1010.2
20160624122429 69 319 1.0 5.0 0.00 0.06 0.01 99 1010.1
20160624122329 69 313 1.0 5.0 0.00 0.06 0.01 99 1010.1
20160624122230 69 312 1.0 5.0 0.00 0.06 0.01 99 1009.8
20160624122130 69 308 1.0 5.0 0.00 0.06 0.01 99 1010.1
20160624122029 69 306 2.0 5.0 0.00 0.06 0.01 99 1010.1
20160624121929 69 302 1.0 5.0 0.00 0.06 0.01 99 1010.0
20160624121829 69 302 1.0 5.0 0.00 0.06 0.01 99 1010.0
20160624121630 69 309 3.0 5.0 0.00 0.06 0.01 99 1010.1
20160624121329 69 302 1.0 3.0 0.00 0.06 0.01 99 1010.0
20160624121129 69 310 1.0 3.0 0.00 0.06 0.01 99 1009.9
20160624121030 69 345 2.0 3.0 0.00 0.06 0.01 99 1009.9
20160624120829 70 0 0.0 0.0 0.00 0.06 0.01 99 1009.9
20160624120629 69 0 0.0 0.0 0.00 0.06 0.01 99 1009.9
20160624120529 69 0 0.0 0.0 0.00 0.06 0.01 99 1009.7
20160624120430 69 0 0.0 0.0 0.00 0.06 0.01 99 1010.0
20160624120330 69 0 0.0 0.0 0.00 0.06 0.01 99 1009.9
20160624120229 69 0 0.0 0.0 0.00 0.06 0.01 99 1009.7
20160624120129 69 0 0.0 0.0 0.00 0.06 0.01 99 1009.7
20160624120029 69 0 0.0 0.0 0.00 0.06 0.01 99 1009.7
20160624115929 69 0 0.0 0.0 0.00 0.06 0.01 99 1009.7
20160624115329 70 49 0.0 1.0 0.01 0.06 0.01 99 1009.5
20160624115229 70 64 0.0 2.0 0.01 0.06 0.01 99 1009.6
20160624115030 70 62 0.0 2.0 0.01 0.06 0.01 98 1009.7
20160624114929 70 62 0.0 2.0 0.01 0.06 0.01 99 1009.5
20160624114729 70 62 0.0 2.0 0.01 0.06 0.01 99 1009.5
20160624114530 69 69 0.0 2.0 0.01 0.06 0.01 99 1009.6
20160624114429 69 77 1.0 2.0 0.01 0.06 0.01 99 1009.6
20160624114329 70 72 1.0 2.0 0.01 0.06 0.01 99 1009.6
20160624114129 70 46 1.0 2.0 0.01 0.06 0.01 98 1009.4
20160624113929 70 0 0.0 0.0 0.01 0.06 0.01 98 1009.6
20160624113829 70 0 0.0 0.0 0.01 0.06 0.01 98 1009.5
20160624113529 70 0 0.0 0.0 0.01 0.06 0.01 98 1009.4
20160624113430 70 0 0.0 0.0 0.01 0.06 0.01 98 1009.4
20160624113329 70 0 0.0 0.0 0.01 0.06 0.01 98 1009.4
20160624113029 70 0 0.0 0.0 0.01 0.06 0.01 99 1009.3
20160624112929 70 0 0.0 0.0 0.01 0.06 0.01 98 1009.6
20160624112830 70 270 0.0 1.0 0.01 0.06 0.01 98 1009.7
20160624112629 70 270 0.0 1.0 0.01 0.06 0.01 98 1009.3
20160624112529 70 270 0.0 1.0 0.01 0.06 0.01 98 1009.3
20160624112429 70 270 0.0 1.0 0.01 0.06 0.01 98 1009.2
20160624112229 70 270 0.0 1.0 0.01 0.06 0.01 98 1009.3
20160624112029 70 270 0.0 1.0 0.01 0.06 0.01 98 1009.2
20160624111830 70 270 0.0 1.0 0.01 0.06 0.01 98 1009.2
20160624111729 70 0 0.0 0.0 0.01 0.06 0.01 98 1009.1
20160624111629 70 0 0.0 0.0 0.01 0.06 0.01 98 1009.0
20160624111529 70 90 0.0 1.0 0.01 0.06 0.01 98 1009.1
20160624110929 69 90 0.0 2.0 0.01 0.06 0.01 99 1009.1
20160624110830 69 90 0.0 2.0 0.01 0.06 0.01 99 1009.3
20160624110529 69 90 0.0 2.0 0.01 0.06 0.01 99 1009.3
20160624110429 69 90 1.0 2.0 0.01 0.06 0.01 99 1009.1
20160624110129 69 90 0.0 1.0 0.01 0.06 0.01 99 1009.2
20160624110029 69 90 0.0 1.0 0.01 0.06 0.01 99 1009.1
20160624105929 69 90 0.0 1.0 0.01 0.06 0.01 99 1009.4
20160624105834 69 90 0.0 1.0 0.01 0.06 0.01 99 1009.1
20160624105429 69 0 0.0 0.0 0.00 0.05 0.00 99 1009.1
20160624105330 69 270 0.0 1.0 0.00 0.05 0.00 99 1009.1
20160624105229 70 270 0.0 3.0 0.00 0.05 0.00 99 1009.3
20160624104730 70 282 0.0 3.0 0.00 0.05 0.00 99 1009.1
20160624104529 70 276 0.0 3.0 0.00 0.05 0.00 99 1009.1
20160624104429 70 276 0.0 3.0 0.00 0.05 0.00 99 1009.0
20160624104329 70 278 1.0 3.0 0.00 0.05 0.00 99 1009.0
20160624104229 70 279 1.0 3.0 0.00 0.05 0.00 99 1009.3
20160624104130 70 271 1.0 3.0 0.00 0.05 0.00 99 1009.1
20160624104029 70 264 1.0 2.0 0.00 0.05 0.00 99 1009.2
20160624103932 70 249 1.0 2.0 0.00 0.05 0.00 98 1009.1
20160624103729 70 96 1.0 2.0 0.00 0.05 0.00 99 1009.3
20160624103630 70 101 1.0 2.0 0.00 0.05 0.00 98 1009.1
20160624103229 70 90 1.0 2.0 0.00 0.05 0.00 99 1009.2
20160624103130 70 90 1.0 2.0 0.00 0.05 0.00 99 1009.1
20160624103030 70 90 1.0 2.0 0.00 0.05 0.00 99 1009.1
20160624102929 70 90 1.0 2.0 0.00 0.05 0.00 99 1009.0
20160624102729 70 270 0.0 1.0 0.00 0.07 0.00 98 1008.9
20160624102529 70 90 0.0 2.0 0.00 0.07 0.00 98 1008.9
20160624102429 70 90 0.0 2.0 0.00 0.08 0.00 98 1008.9
20160624102329 70 90 0.0 2.0 0.00 0.08 0.00 98 1009.0
20160624101930 70 90 0.0 2.0 0.00 0.08 0.00 98 1009.2
20160624101829 70 90 0.0 2.0 0.00 0.09 0.00 98 1009.0
20160624101329 70 90 0.0 2.0 0.00 0.09 0.00 99 1008.8
20160624101129 70 90 0.0 2.0 0.00 0.09 0.00 99 1008.9
20160624101029 70 90 0.0 2.0 0.00 0.09 0.00 99 1009.0
20160624100929 70 90 1.0 2.0 0.00 0.09 0.00 99 1009.0
20160624100330 70 90 1.0 2.0 0.00 0.11 0.00 99 1009.0
20160624095932 70 90 1.0 2.0 0.00 0.11 0.00 99 1009.1
20160624095829 70 90 1.0 2.0 0.00 0.12 0.00 99 1009.0
20160624095529 70 90 1.0 2.0 0.00 0.12 0.00 99 1009.0
20160624095229 70 0 0.0 0.0 0.00 0.12 0.00 98 1009.0
20160624095029 70 0 0.0 0.0 0.00 0.12 0.00 98 1009.0
20160624094734 70 0 0.0 0.0 0.00 0.12 0.00 98 1008.9
20160624094533 70 0 0.0 0.0 0.00 0.13 0.00 98 1009.0
20160624094434 70 0 0.0 0.0 0.00 0.15 0.00 98 1009.0
20160624094131 70 0 0.0 0.0 0.00 0.17 0.00 98 1008.8
20160624093929 70 0 0.0 0.0 0.00 0.21 0.00 98 1008.6
20160624093837 70 0 0.0 0.0 0.00 0.21 0.00 98 1008.7
20160624093639 70 0 0.0 0.0 0.00 0.24 0.00 98 1008.7
20160624093438 70 0 0.0 0.0 0.00 0.25 0.00 98 1008.7
20160624093131 70 0 0.0 0.0 0.00 0.28 0.00 98 1008.7
20160624093033 70 0 0.0 0.0 0.00 0.30 0.00 98 1008.8
20160624092834 70 181 0.0 1.0 0.00 0.31 0.00 98 1008.8
20160624092629 70 162 0.0 2.0 0.00 0.34 0.00 98 1008.5
20160624092529 70 146 0.0 2.0 0.00 0.34 0.00 98 1008.7
20160624092329 70 138 0.0 2.0 0.00 0.40 0.00 98 1008.6
20160624092229 70 138 0.0 2.0 0.00 0.44 0.00 98 1008.6
20160624092129 70 138 0.0 2.0 0.00 0.51 0.00 98 1008.3
20160624091529 70 83 1.0 3.0 0.00 0.83 0.00 98 1008.3
20160624091429 70 84 0.0 3.0 0.00 0.83 0.00 98 1008.6
20160624091329 70 85 0.0 3.0 0.00 0.84 0.00 98 1008.5
20160624091229 70 86 0.0 3.0 0.00 0.84 0.00 98 1008.3
20160624091129 70 86 0.0 3.0 0.00 0.84 0.00 98 1008.3
20160624091029 70 86 0.0 3.0 0.00 0.84 0.00 98 1008.2
20160624090929 70 90 0.0 3.0 0.00 0.84 0.00 98 1008.5
20160624090429 70 90 2.0 3.0 0.00 0.84 0.00 98 1008.2
20160624090330 70 90 1.0 3.0 0.00 0.84 0.00 98 1008.2
20160624090129 70 181 0.0 1.0 0.00 0.84 0.00 98 1008.2
20160624090029 70 181 0.0 1.0 0.00 0.84 0.00 98 1008.2
20160624085929 70 146 0.0 2.0 0.00 0.84 0.00 98 1008.2
20160624085829 70 120 0.0 2.0 0.00 0.84 0.00 98 1008.2
20160624085429 70 120 0.0 2.0 0.00 0.84 0.00 98 1008.2
20160624085329 70 120 0.0 2.0 0.00 0.84 0.00 98 1008.2
20160624085229 70 120 0.0 2.0 0.00 0.84 0.00 98 1008.0
20160624085129 70 118 0.0 2.0 0.00 0.84 0.00 98 1008.2
20160624084829 70 0 0.0 0.0 0.00 0.84 0.00 98 1008.2
20160624084729 70 1 0.0 2.0 0.00 0.84 0.00 98 1008.0
20160624084229 70 329 0.0 3.0 0.00 0.84 0.00 98 1008.0
20160624084029 70 318 0.0 4.0 0.00 0.84 0.00 99 1008.0
20160624083929 70 315 0.0 4.0 0.00 0.84 0.00 98 1007.9
20160624083829 70 308 0.0 4.0 0.00 0.84 0.00 98 1007.9
20160624083329 70 291 0.0 4.0 0.00 0.84 0.00 98 1007.6
20160624083129 70 294 1.0 4.0 0.00 0.84 0.00 99 1007.8
20160624082829 70 282 1.0 3.0 0.00 0.84 0.00 98 1007.8
20160624082729 70 280 1.0 2.0 0.00 0.84 0.00 98 1007.7
20160624082430 69 270 0.0 1.0 0.00 0.84 0.00 99 1007.6
20160624082229 70 270 0.0 1.0 0.00 0.84 0.00 99 1007.8
20160624081930 70 0 0.0 0.0 0.00 0.84 0.00 99 1007.7
20160624081829 70 0 0.0 0.0 0.00 0.84 0.00 99 1007.5
20160624081729 70 0 0.0 0.0 0.00 0.84 0.00 99 1007.7
20160624081629 69 0 0.0 0.0 0.00 0.84 0.00 99 1007.5
20160624081328 69 0 0.0 0.0 0.00 0.84 0.00 99 1007.6
20160624081129 69 0 0.0 0.0 0.00 0.84 0.00 99 1007.5
20160624080929 69 1 0.0 2.0 0.00 0.84 0.00 99 1007.7
20160624080829 69 1 0.0 2.0 0.00 0.84 0.00 99 1007.6
20160624080629 69 1 0.0 3.0 0.00 0.84 0.00 99 1007.4
20160624080529 69 355 0.0 3.0 0.00 0.84 0.00 99 1007.5
20160624080429 69 354 0.0 3.0 0.00 0.84 0.00 99 1007.5
20160624080329 69 347 0.0 3.0 0.00 0.84 0.00 99 1007.4
20160624080229 69 346 0.0 3.0 0.00 0.84 0.00 99 1007.6
20160624075929 69 345 1.0 3.0 0.00 0.84 0.00 99 1007.5
20160624075829 69 341 1.0 3.0 0.00 0.84 0.00 99 1007.7
20160624075629 69 307 1.0 1.0 0.00 0.84 0.00 99 1007.5
20160624075429 69 270 0.0 1.0 0.00 0.84 0.00 99 1007.5
20160624075229 69 0 0.0 0.0 0.00 0.84 0.00 99 1007.2
20160624075129 69 0 0.0 0.0 0.00 0.84 0.00 99 1007.2
20160624075030 69 270 0.0 1.0 0.00 0.84 0.00 99 1007.3
20160624074929 69 270 0.0 1.0 0.00 0.84 0.00 99 1007.3
20160624074829 69 270 0.0 1.0 0.00 0.84 0.00 99 1007.7
20160624074729 69 270 0.0 2.0 0.00 0.84 0.00 99 1007.5
20160624074529 69 270 0.0 2.0 0.00 0.84 0.00 99 1007.6
20160624074329 69 270 0.0 2.0 0.00 0.84 0.00 99 1007.4
20160624074129 69 270 0.0 2.0 0.00 0.84 0.00 99 1007.4
20160624074029 69 270 0.0 2.0 0.00 0.84 0.00 99 1007.6
20160624073929 69 270 0.0 2.0 0.00 0.84 0.00 99 1007.6
20160624073829 69 270 1.0 2.0 0.00 0.84 0.00 99 1007.6
20160624073729 69 270 1.0 2.0 0.00 0.84 0.00 99 1007.6
20160624073329 69 294 0.0 2.0 0.00 0.84 0.00 99 1007.6
20160624073229 69 298 0.0 2.0 0.00 0.84 0.00 99 1007.6
20160624073129 69 302 1.0 2.0 0.00 0.84 0.00 99 1007.6
20160624073029 69 312 0.0 2.0 0.00 0.84 0.00 99 1007.5
20160624072929 69 317 0.0 2.0 0.00 0.84 0.00 99 1007.6
20160624072729 69 321 1.0 2.0 0.00 0.84 0.00 99 1007.7
20160624072629 69 336 1.0 2.0 0.00 0.84 0.00 99 1007.6
20160624072229 69 91 0.0 4.0 0.00 0.84 0.00 99 1007.6
20160624072128 69 90 0.0 4.0 0.00 0.84 0.00 99 1007.6
20160624072030 69 90 0.0 4.0 0.00 0.84 0.00 99 1007.8
20160624071929 70 89 0.0 4.0 0.00 0.84 0.00 99 1007.7
20160624071729 70 82 1.0 4.0 0.00 0.84 0.00 99 1007.8
20160624071629 69 79 1.0 5.0 0.00 0.84 0.00 99 1007.8
20160624071528 69 83 1.0 5.0 0.00 0.84 0.00 99 1007.9
20160624071429 70 83 2.0 5.0 0.00 0.84 0.00 99 1007.9
20160624071329 70 83 3.0 5.0 0.00 0.84 0.00 99 1007.8
20160624071229 70 82 2.0 5.0 0.00 0.84 0.00 99 1007.7
20160624071130 70 77 2.0 5.0 0.00 0.84 0.00 99 1007.7
20160624070729 70 81 2.0 5.0 0.00 0.84 0.00 99 1007.8
20160624070629 70 85 3.0 5.0 0.00 0.84 0.00 99 1008.0
20160624070529 70 81 2.0 5.0 0.00 0.84 0.00 99 1007.8
20160624070429 70 79 2.0 5.0 0.00 0.84 0.00 98 1007.9
20160624070129 70 83 2.0 3.0 0.00 0.84 0.00 98 1007.6
20160624065329 70 90 1.0 3.0 0.00 0.84 0.00 98 1008.0
20160624065229 70 90 1.0 2.0 0.00 0.84 0.00 98 1008.0
20160624065129 70 90 1.0 2.0 0.00 0.84 0.00 98 1008.0
20160624064929 70 90 1.0 2.0 0.00 0.84 0.00 98 1008.2
20160624064729 70 90 0.0 1.0 0.00 0.84 0.00 98 1008.2
20160624064429 70 0 0.0 0.0 0.00 0.84 0.00 98 1008.2
20160624064129 70 0 0.0 0.0 0.00 0.84 0.00 98 1008.3
20160624064030 71 0 0.0 0.0 0.00 0.84 0.00 98 1008.5
20160624063829 70 0 0.0 0.0 0.00 0.84 0.00 98 1008.6
20160624063729 70 0 0.0 0.0 0.00 0.84 0.00 98 1008.5
20160624063329 70 0 0.0 0.0 0.00 0.84 0.00 98 1008.8
20160624063129 70 0 0.0 0.0 0.00 0.84 0.00 98 1008.7
20160624063029 70 0 0.0 0.0 0.00 0.84 0.00 98 1008.8
20160624062929 70 0 0.0 0.0 0.00 0.84 0.00 98 1008.7
20160624062729 70 0 0.0 0.0 0.00 0.84 0.00 98 1008.9
20160624062629 70 0 0.0 0.0 0.00 0.84 0.00 98 1008.7
20160624062529 71 0 0.0 0.0 0.00 0.84 0.00 98 1008.8
20160624062429 70 0 0.0 0.0 0.00 0.84 0.00 98 1008.9
20160624062229 70 0 0.0 0.0 0.00 0.84 0.00 98 1008.7
20160624062029 70 0 0.0 0.0 0.00 0.84 0.00 98 1008.6
20160624061929 70 0 0.0 0.0 0.00 0.84 0.00 98 1008.7
20160624061829 70 0 0.0 0.0 0.00 0.84 0.00 98 1008.9
20160624061529 70 0 0.0 0.0 0.00 0.84 0.00 98 1008.7
20160624061429 70 0 0.0 0.0 0.00 0.84 0.00 98 1008.6
20160624061329 70 0 0.0 0.0 0.00 0.84 0.00 98 1008.6
20160624061029 70 0 0.0 0.0 0.00 0.84 0.00 98 1008.7
20160624060929 70 0 0.0 0.0 0.00 0.84 0.00 98 1008.9
20160624060529 70 0 0.0 0.0 0.00 0.84 0.00 98 1008.7
20160624060429 70 0 0.0 0.0 0.00 0.84 0.00 98 1008.8
20160624060329 70 0 0.0 0.0 0.00 0.84 0.00 98 1008.7
20160624060129 70 0 0.0 0.0 0.00 0.84 0.00 98 1008.7
20160624055929 70 0 0.0 0.0 0.00 0.84 0.00 98 1008.7
20160624055829 70 0 0.0 0.0 0.00 0.84 0.00 98 1008.8
20160624055628 70 0 0.0 0.0 0.00 0.84 0.00 98 1008.7
20160624055529 70 0 0.0 0.0 0.00 0.84 0.00 98 1008.5
20160624055329 70 0 0.0 0.0 0.00 0.84 0.00 98 1008.7
20160624055130 70 0 0.0 0.0 0.00 0.84 0.00 98 1008.6
20160624054929 70 0 0.0 0.0 0.00 0.84 0.00 98 1008.6
20160624054729 70 0 0.0 0.0 0.00 0.84 0.00 98 1008.7
20160624054629 70 0 0.0 0.0 0.00 0.84 0.00 98 1008.7
20160624054429 70 0 0.0 0.0 0.00 0.84 0.00 98 1008.5
20160624054329 70 0 0.0 0.0 0.00 0.84 0.00 98 1008.4
20160624053929 70 0 0.0 0.0 0.00 0.84 0.00 98 1008.4
20160624053629 70 0 0.0 0.0 0.00 0.84 0.00 98 1008.4
20160624053428 70 0 0.0 0.0 0.00 0.84 0.00 98 1008.4
20160624053329 70 0 0.0 0.0 0.00 0.84 0.00 98 1008.4
20160624053229 71 0 0.0 0.0 0.00 0.84 0.00 98 1008.1
20160624052829 71 0 0.0 0.0 0.00 0.84 0.00 98 1008.3
20160624052729 71 0 0.0 0.0 0.00 0.84 0.00 98 1008.2
20160624052629 71 0 0.0 0.0 0.00 0.84 0.00 98 1008.4
20160624052529 71 0 0.0 0.0 0.00 0.84 0.00 98 1008.4
20160624052329 70 0 0.0 0.0 0.00 0.84 0.00 98 1008.4
20160624052029 71 0 0.0 0.0 0.00 0.84 0.00 98 1008.5
20160624051829 71 0 0.0 0.0 0.00 0.84 0.00 98 1008.3
20160624051729 71 0 0.0 0.0 0.00 0.84 0.00 98 1008.5
20160624051629 71 0 0.0 0.0 0.00 0.84 0.00 98 1008.5
20160624051429 71 0 0.0 0.0 0.00 0.84 0.00 98 1008.4
20160624051329 71 0 0.0 0.0 0.00 0.84 0.00 98 1008.4
20160624051129 71 0 0.0 0.0 0.00 0.84 0.00 98 1008.2
20160624051029 71 0 0.0 0.0 0.00 0.84 0.00 98 1008.3
20160624050929 71 0 0.0 0.0 0.00 0.84 0.00 98 1008.5
20160624050829 71 0 0.0 0.0 0.00 0.84 0.00 98 1008.4
20160624050429 71 0 0.0 0.0 0.00 0.84 0.00 98 1008.4
20160624050237 71 0 0.0 0.0 0.00 0.84 0.00 98 1008.4
20160624050129 71 0 0.0 0.0 0.00 0.84 0.00 98 1008.3
20160624045830 71 0 0.0 0.0 0.00 0.84 0.00 98 1008.5
20160624045629 71 0 0.0 0.0 0.00 0.84 0.00 98 1008.6
20160624045529 71 0 0.0 0.0 0.00 0.84 0.00 98 1008.4
20160624045229 71 0 0.0 0.0 0.00 0.84 0.00 98 1008.4
20160624045129 71 0 0.0 0.0 0.00 0.84 0.00 98 1008.4
20160624044828 71 0 0.0 0.0 0.00 0.84 0.00 98 1008.3
20160624044529 71 0 0.0 0.0 0.00 0.84 0.00 98 1008.4
20160624044329 71 0 0.0 0.0 0.00 0.84 0.00 98 1008.2
20160624044229 71 0 0.0 0.0 0.00 0.84 0.00 98 1008.4
20160624044129 71 0 0.0 0.0 0.00 0.84 0.00 98 1008.1
20160624044029 71 0 0.0 0.0 0.00 0.84 0.00 98 1008.2
20160624043929 71 0 0.0 0.0 0.00 0.84 0.00 98 1008.2
20160624043729 71 0 0.0 0.0 0.00 0.84 0.00 98 1008.3
20160624043529 71 0 0.0 0.0 0.00 0.84 0.00 98 1008.1
20160624043429 71 0 0.0 0.0 0.00 0.84 0.00 98 1008.3
20160624043330 71 0 0.0 0.0 0.00 0.84 0.00 98 1008.3
20160624043229 71 0 0.0 0.0 0.00 0.84 0.00 98 1008.2
20160624043129 71 0 0.0 0.0 0.00 0.84 0.00 98 1008.1
20160624043028 71 0 0.0 0.0 0.00 0.84 0.00 98 1008.2
20160624042929 71 0 0.0 0.0 0.00 0.84 0.00 98 1008.2
20160624042829 71 0 0.0 0.0 0.00 0.84 0.00 98 1008.1
20160624042729 71 0 0.0 0.0 0.00 0.84 0.00 98 1008.2
20160624042029 72 88 0.0 3.0 0.00 0.84 0.00 97 1008.2
20160624041829 72 89 0.0 3.0 0.00 0.84 0.00 97 1008.1
20160624041729 72 88 0.0 3.0 0.00 0.84 0.00 97 1008.0
20160624041629 72 78 1.0 3.0 0.00 0.84 0.00 97 1008.1
20160624041329 72 64 1.0 3.0 0.00 0.84 0.00 97 1008.1
20160624041229 72 56 2.0 3.0 0.00 0.84 0.00 97 1008.2
20160624041129 71 42 2.0 3.0 0.00 0.84 0.00 98 1008.1
20160624041029 71 27 1.0 2.0 0.00 0.84 0.00 98 1008.1
20160624040929 71 15 1.0 2.0 0.00 0.84 0.00 98 1008.0
20160624040828 71 6 1.0 1.0 0.00 0.84 0.00 98 1008.0
20160624040729 72 1 1.0 1.0 0.00 0.84 0.00 97 1008.2
20160624040328 72 35 1.0 2.0 0.00 0.84 0.84 97 1008.3
20160624040229 72 46 1.0 2.0 0.00 0.84 0.84 97 1008.3
20160624040129 72 58 1.0 2.0 0.00 0.84 0.84 97 1008.5
20160624035729 72 123 0.0 2.0 0.00 0.84 0.84 97 1008.3
20160624035529 72 152 1.0 2.0 0.00 0.84 0.84 97 1008.2
20160624035429 72 217 1.0 2.0 0.00 0.84 0.84 97 1008.6
20160624035329 72 270 1.0 2.0 0.00 0.84 0.84 97 1008.3
20160624035229 72 270 0.0 1.0 0.00 0.84 0.84 97 1008.4
20160624035129 72 270 0.0 1.0 0.00 0.84 0.84 97 1008.5
20160624035028 72 110 0.0 1.0 0.00 0.84 0.84 97 1008.6
20160624034829 72 90 0.0 1.0 0.00 0.84 0.84 97 1008.5
20160624034729 72 113 0.0 2.0 0.00 0.84 0.84 97 1008.4
20160624034529 72 138 1.0 3.0 0.00 0.84 0.84 97 1008.6
20160624034429 72 134 0.0 3.0 0.00 0.84 0.84 97 1008.3
20160624034129 72 143 1.0 3.0 0.00 0.84 0.84 97 1008.5
20160624033429 72 105 1.0 4.0 0.00 0.84 0.84 97 1008.3
20160624033228 72 98 1.0 4.0 0.00 0.84 0.84 97 1008.4
20160624033128 72 94 1.0 4.0 0.00 0.84 0.84 97 1008.2
20160624033029 72 90 2.0 4.0 0.00 0.84 0.84 97 1008.3
20160624032429 71 0 0.0 0.0 0.00 0.84 0.84 98 1008.3
20160624032029 72 0 0.0 0.0 0.00 0.84 0.84 97 1008.1
20160624031629 72 0 0.0 0.0 0.00 0.84 0.84 97 1008.0
20160624031528 72 0 0.0 0.0 0.00 0.84 0.84 97 1008.1
20160624031229 72 0 0.0 0.0 0.00 0.84 0.84 97 1008.0
20160624031129 72 0 0.0 0.0 0.00 0.84 0.84 97 1008.2
20160624031029 72 0 0.0 0.0 0.00 0.84 0.84 97 1008.1
20160624030829 72 0 0.0 0.0 0.00 0.84 0.84 97 1007.6
20160624030429 72 0 0.0 0.0 0.00 0.84 0.84 97 1008.0
20160624030229 71 0 0.0 0.0 0.00 0.84 0.84 98 1007.7
20160624030128 71 0 0.0 0.0 0.00 0.84 0.84 98 1007.9
20160624030029 71 0 0.0 0.0 0.00 0.84 0.84 98 1007.9
20160624025829 71 0 0.0 0.0 0.00 0.84 0.84 98 1007.9
20160624025729 71 0 0.0 0.0 0.00 0.84 0.84 98 1007.9
20160624025629 71 0 0.0 0.0 0.00 0.84 0.84 98 1007.9
20160624025529 71 0 0.0 0.0 0.00 0.84 0.84 98 1008.0
20160624025429 71 0 0.0 0.0 0.00 0.84 0.84 98 1007.9
20160624025229 71 0 0.0 0.0 0.00 0.84 0.84 98 1007.8
20160624025029 71 0 0.0 0.0 0.00 0.84 0.84 98 1007.7
20160624024929 71 0 0.0 0.0 0.00 0.84 0.84 98 1007.8
20160624024829 71 0 0.0 0.0 0.00 0.84 0.84 98 1007.7
20160624024429 71 0 0.0 0.0 0.00 0.84 0.84 98 1007.7
20160624024129 71 0 0.0 0.0 0.00 0.84 0.84 98 1007.7
20160624024029 71 0 0.0 0.0 0.00 0.84 0.84 98 1007.5
20160624023829 71 0 0.0 0.0 0.00 0.84 0.84 98 1007.4
20160624023729 72 0 0.0 0.0 0.00 0.84 0.84 97 1007.4
20160624023629 72 0 0.0 0.0 0.00 0.84 0.84 97 1007.4
20160624023529 72 0 0.0 0.0 0.00 0.84 0.84 97 1007.2
20160624023429 72 0 0.0 0.0 0.00 0.84 0.84 97 1007.5
20160624023329 72 0 0.0 0.0 0.00 0.84 0.84 97 1007.3
20160624023229 72 0 0.0 0.0 0.00 0.84 0.84 97 1007.4
20160624023029 72 0 0.0 0.0 0.00 0.84 0.84 97 1007.4
20160624022929 72 0 0.0 0.0 0.00 0.84 0.84 97 1007.1
20160624022829 72 0 0.0 0.0 0.00 0.84 0.84 97 1007.2
20160624022729 72 0 0.0 0.0 0.00 0.84 0.84 97 1007.3
20160624022629 72 0 0.0 0.0 0.00 0.84 0.84 97 1007.2
20160624022429 72 1 0.0 1.0 0.00 0.84 0.84 97 1007.2
20160624022330 72 1 0.0 1.0 0.00 0.84 0.84 97 1007.3
20160624022029 72 1 0.0 1.0 0.00 0.84 0.84 97 1007.3
20160624021729 73 1 0.0 1.0 0.00 0.84 0.84 97 1007.2
20160624021328 72 1 1.0 1.0 0.00 0.84 0.84 97 1007.3
20160624021129 73 90 0.0 1.0 0.00 0.84 0.84 97 1007.3
20160624020829 73 121 0.0 3.0 0.00 0.84 0.84 97 1007.4
20160624020729 73 144 0.0 4.0 0.00 0.84 0.84 97 1007.0
20160624020528 73 149 0.0 4.0 0.00 0.84 0.84 97 1007.2
20160624020429 73 147 0.0 4.0 0.00 0.84 0.84 97 1007.2
20160624020329 73 145 0.0 4.0 0.00 0.84 0.84 97 1007.4
20160624020028 73 142 1.0 4.0 0.00 0.84 0.84 97 1007.5
20160624015829 73 132 2.0 4.0 0.00 0.84 0.84 97 1007.8
20160624015729 73 119 2.0 4.0 0.00 0.84 0.84 97 1007.7
20160624015530 73 103 1.0 3.0 0.00 0.84 0.84 97 1007.7
20160624015429 73 98 2.0 3.0 0.00 0.84 0.84 97 1007.7
20160624015128 73 90 1.0 3.0 0.00 0.84 0.84 98 1007.7
20160624014929 73 90 1.0 3.0 0.00 0.84 0.84 98 1007.8
20160624014829 73 94 0.0 3.0 0.00 0.84 0.84 98 1007.8
20160624014729 73 94 1.0 3.0 0.00 0.84 0.84 98 1007.6
20160624014529 73 91 1.0 4.0 0.00 0.84 0.84 98 1007.5
20160624014429 73 88 1.0 4.0 0.00 0.84 0.84 98 1007.5
20160624014229 73 86 1.0 4.0 0.00 0.84 0.84 98 1007.5
20160624013929 73 85 2.0 4.0 0.00 0.84 0.84 98 1007.2
20160624013829 73 86 0.0 4.0 0.00 0.84 0.84 98 1007.4
20160624013728 73 86 1.0 4.0 0.00 0.84 0.84 97 1007.4
20160624013529 73 88 1.0 4.0 0.00 0.84 0.84 97 1007.0
20160624013229 74 81 2.0 4.0 0.00 0.84 0.84 97 1007.0
20160624013128 74 81 1.0 4.0 0.00 0.84 0.84 97 1007.1
20160624013029 74 81 1.0 4.0 0.00 0.84 0.84 97 1007.2
20160624012629 74 76 2.0 6.0 0.00 0.84 0.84 96 1007.0
20160624012429 74 70 3.0 7.0 0.00 0.84 0.84 96 1007.0
20160624012329 74 69 1.0 7.0 0.00 0.84 0.84 96 1007.0
20160624012128 74 68 1.0 7.0 0.00 0.84 0.84 96 1007.1
20160624011932 74 68 1.0 7.0 0.00 0.84 0.84 96 1007.2
20160624011829 74 71 4.0 7.0 0.00 0.84 0.84 96 1007.0
20160624011729 74 73 2.0 7.0 0.00 0.84 0.84 96 1007.0
20160624011629 74 71 3.0 7.0 0.00 0.84 0.84 96 1006.8
20160624011329 74 79 2.0 5.0 0.00 0.84 0.84 96 1006.8
20160624011129 74 77 2.0 5.0 0.00 0.84 0.84 96 1006.9
20160624010729 74 59 3.0 5.0 0.00 0.84 0.84 96 1006.8
20160624010529 74 63 3.0 5.0 0.00 0.84 0.84 97 1006.7
20160624010329 74 63 1.0 4.0 0.00 0.84 0.84 96 1006.8
20160624010128 74 75 2.0 4.0 0.00 0.84 0.84 96 1006.8
20160624010029 75 78 1.0 3.0 0.00 0.84 0.84 96 1007.0
20160624005929 74 78 0.0 3.0 0.00 0.84 0.84 96 1007.3
20160624005829 75 76 2.0 3.0 0.00 0.84 0.84 96 1007.1
20160624005529 75 63 0.0 4.0 0.00 0.84 0.84 96 1007.0
20160624005429 75 63 2.0 4.0 0.00 0.84 0.84 96 1007.0
20160624005228 75 63 1.0 4.0 0.00 0.84 0.84 96 1006.8
20160624005128 75 63 2.0 4.0 0.00 0.84 0.84 96 1006.9
20160624005028 75 64 0.0 4.0 0.00 0.84 0.84 95 1006.7
20160624004929 75 72 1.0 4.0 0.00 0.84 0.84 95 1006.9
20160624004529 75 90 2.0 5.0 0.00 0.84 0.84 94 1006.8
20160624004329 75 90 1.0 5.0 0.00 0.84 0.84 94 1007.1
20160624004128 75 90 1.0 5.0 0.00 0.84 0.84 94 1007.0
20160624003729 76 90 1.0 5.0 0.00 0.84 0.84 93 1006.8
20160624003529 76 89 1.0 3.0 0.00 0.84 0.84 90 1006.5
20160624003229 76 80 1.0 3.0 0.00 0.84 0.84 90 1006.7
20160624003028 76 62 1.0 3.0 0.00 0.84 0.84 90 1006.7
20160624002929 76 49 1.0 3.0 0.00 0.84 0.84 90 1006.7
20160624002829 76 28 3.0 3.0 0.00 0.84 0.84 90 1006.6
20160624002629 77 24 0.0 3.0 0.00 0.84 0.84 88 1006.7
20160624002528 77 41 0.0 3.0 0.00 0.84 0.84 88 1006.7
20160624002329 77 63 0.0 3.0 0.00 0.84 0.84 88 1006.7
20160624002129 77 76 1.0 3.0 0.00 0.84 0.84 88 1006.8
20160624002028 77 80 1.0 3.0 0.00 0.84 0.84 88 1006.5
20160624001929 77 84 1.0 3.0 0.00 0.84 0.84 88 1006.6
20160624001829 77 88 1.0 3.0 0.00 0.84 0.84 88 1006.4
20160624001729 77 90 1.0 3.0 0.00 0.84 0.84 87 1006.4
20160624001628 77 90 3.0 3.0 0.00 0.84 0.84 87 1006.6
20160624001429 77 90 1.0 3.0 0.00 0.84 0.84 87 1006.6
20160624001329 77 90 1.0 3.0 0.00 0.84 0.84 86 1006.5
20160624001229 78 90 1.0 3.0 0.00 0.84 0.84 85 1006.6
20160624001028 78 90 1.0 1.0 0.00 0.84 0.84 85 1006.3
20160624000929 78 110 0.0 1.0 0.00 0.84 0.84 85 1006.3
20160624000429 80 102 0.0 5.0 0.01 0.84 0.84 86 1006.1
20160624000329 79 113 0.0 6.0 0.01 0.84 0.84 87 1006.2
20160624000229 78 109 0.0 6.0 0.01 0.84 0.84 87 1006.2
20160623235828 77 105 0.0 6.0 0.01 0.84 0.84 90 1006.1
20160623235729 77 99 0.0 6.0 0.01 0.84 0.84 90 1006.1
20160623235629 76 95 2.0 6.0 0.01 0.84 0.84 90 1006.1
20160623235428 76 95 4.0 6.0 0.01 0.84 0.84 90 1006.1
20160623235328 76 41 5.0 6.0 0.01 0.84 0.84 89 1006.1
20160623235029 78 310 2.0 6.0 0.01 0.84 0.84 87 1006.0
20160623234828 77 295 1.0 6.0 0.01 0.84 0.84 87 1005.8
20160623234728 76 287 1.0 6.0 0.01 0.84 0.84 88 1005.9
20160623234129 75 216 4.0 7.0 0.01 0.84 0.84 92 1005.9
20160623234029 75 189 3.0 7.0 0.01 0.84 0.84 93 1006.0
20160623233929 75 173 3.0 7.0 0.01 0.84 0.84 93 1005.6
20160623233729 75 154 1.0 7.0 0.02 0.84 0.84 94 1005.9
20160623233629 75 154 2.0 7.0 0.02 0.84 0.84 95 1005.9
20160623233428 75 154 3.0 7.0 0.02 0.84 0.84 97 1006.1
20160623233328 75 149 2.0 7.0 0.02 0.84 0.84 97 1006.1
20160623232828 74 142 1.0 3.0 0.02 0.84 0.84 99 1005.8
20160623232728 74 148 1.0 3.0 0.02 0.84 0.84 99 1005.9
20160623232629 74 157 1.0 3.0 0.02 0.84 0.84 99 1005.7
20160623232529 74 158 2.0 3.0 0.04 0.84 0.84 99 1005.6
20160623232429 74 169 3.0 5.0 0.04 0.84 0.84 99 1005.6
20160623232228 74 160 0.0 5.0 0.04 0.84 0.84 99 1005.6
20160623232129 74 168 0.0 6.0 0.04 0.84 0.84 99 1005.4
20160623232029 74 176 1.0 6.0 0.04 0.84 0.84 99 1005.5
20160623231729 74 189 0.0 9.0 0.04 0.84 0.84 99 1005.6
20160623231629 74 184 0.0 12.0 0.04 0.84 0.84 99 1005.3
20160623231229 74 191 5.0 12.0 0.04 0.84 0.84 99 1005.2
20160623230929 74 181 3.0 12.0 0.04 0.84 0.84 99 1005.5
20160623230828 74 176 6.0 12.0 0.02 0.83 0.83 99 1005.2
20160623230129 74 163 5.0 11.0 0.02 0.83 0.83 99 1005.2
20160623230028 74 168 7.0 11.0 0.02 0.83 0.83 99 1005.4
20160623225829 74 173 3.0 10.0 0.02 0.83 0.83 99 1005.3
20160623225729 74 176 5.0 10.0 0.02 0.83 0.83 99 1005.0
20160623225529 74 169 4.0 7.0 0.02 0.83 0.83 99 1005.0
20160623225329 74 163 4.0 7.0 0.02 0.83 0.83 99 1005.1
20160623225229 74 169 3.0 6.0 0.02 0.83 0.83 98 1005.1
20160623225128 74 172 1.0 6.0 0.02 0.83 0.83 98 1005.0
20160623224929 74 170 1.0 6.0 0.02 0.83 0.83 98 1005.2
20160623224829 74 167 4.0 6.0 0.02 0.83 0.83 98 1005.1
20160623224728 74 174 5.0 8.0 0.02 0.83 0.83 98 1004.9
20160623224629 74 184 2.0 8.0 0.02 0.83 0.83 98 1005.0
20160623224329 75 194 1.0 8.0 0.02 0.83 0.83 97 1005.0
20160623224129 75 192 2.0 8.0 0.02 0.83 0.83 97 1005.0
20160623223929 75 192 2.0 8.0 0.02 0.83 0.83 97 1005.2
20160623223728 75 178 3.0 8.0 0.01 0.81 0.81 97 1005.0
20160623223629 75 174 3.0 8.0 0.01 0.81 0.81 97 1005.2
20160623223529 75 170 2.0 8.0 0.01 0.81 0.81 96 1005.2
20160623223429 75 166 2.0 8.0 0.01 0.81 0.81 96 1005.3
20160623223128 75 156 5.0 11.0 0.01 0.81 0.81 94 1005.3
20160623222829 76 138 4.0 11.0 0.01 0.81 0.81 91 1004.7
20160623222728 76 135 6.0 11.0 0.01 0.81 0.81 90 1004.7
20160623222529 77 131 4.0 11.0 0.00 0.80 0.80 89 1004.8
20160623222429 77 130 5.0 11.0 0.00 0.80 0.80 88 1004.7
20160623222329 77 130 6.0 11.0 0.00 0.80 0.80 87 1004.9
20160623222228 77 127 5.0 11.0 0.00 0.80 0.80 86 1005.0
20160623222028 77 137 7.0 11.0 0.00 0.80 0.80 86 1004.9
20160623221929 77 131 7.0 11.0 0.00 0.80 0.80 86 1005.0
20160623221829 78 127 6.0 11.0 0.00 0.80 0.80 86 1005.2
20160623221628 78 133 5.0 9.0 0.00 0.80 0.80 86 1005.4
20160623221429 78 131 5.0 9.0 0.00 0.80 0.80 85 1005.4
20160623221329 78 128 5.0 9.0 0.00 0.80 0.80 85 1005.6
20160623221229 78 125 4.0 10.0 0.00 0.80 0.80 85 1005.5
20160623221129 78 120 4.0 10.0 0.00 0.80 0.80 85 1005.3
20160623220629 78 127 7.0 13.0 0.00 0.80 0.80 86 1005.0
20160623220429 78 132 4.0 13.0 0.00 0.80 0.80 85 1004.8
20160623220228 79 131 7.0 13.0 0.00 0.80 0.80 85 1004.7
20160623220129 79 135 8.0 13.0 0.00 0.80 0.80 85 1004.8
20160623220029 79 135 7.0 13.0 0.00 0.80 0.80 85 1005.0
20160623215629 79 128 6.0 13.0 0.00 0.80 0.80 85 1005.2
20160623215429 79 123 7.0 13.0 0.00 0.80 0.80 86 1005.2
20160623215328 79 124 7.0 13.0 0.00 0.80 0.80 86 1005.1
20160623215228 79 124 7.0 13.0 0.00 0.80 0.80 86 1004.8
20160623214929 79 120 7.0 12.0 0.00 0.80 0.80 87 1004.7
20160623214828 79 121 7.0 11.0 0.00 0.80 0.80 87 1005.0
20160623214629 80 111 7.0 13.0 0.00 0.80 0.80 89 1005.1
20160623214328 80 112 5.0 13.0 0.00 0.80 0.80 89 1005.0
20160623214029 80 111 7.0 13.0 0.00 0.80 0.80 89 1005.0
20160623213929 81 106 6.0 13.0 0.00 0.80 0.80 88 1004.9
20160623213329 82 124 9.0 15.0 0.00 0.80 0.80 88 1005.0
20160623213228 82 119 7.0 15.0 0.00 0.80 0.80 89 1005.0
20160623213128 82 120 5.0 15.0 0.00 0.80 0.80 88 1005.1
20160623212929 82 122 8.0 19.0 0.00 0.81 0.80 88 1005.2
20160623212728 82 123 5.0 19.0 0.00 0.81 0.80 88 1005.4
20160623212629 82 124 7.0 19.0 0.00 0.81 0.80 88 1005.3
20160623212429 83 128 7.0 19.0 0.00 0.81 0.80 88 1005.2
20160623212328 83 122 6.0 19.0 0.00 0.81 0.80 88 1005.3
20160623212228 83 127 9.0 19.0 0.00 0.81 0.80 88 1005.3
20160623212029 83 130 6.0 19.0 0.00 0.81 0.80 88 1005.0
20160623211828 83 137 6.0 13.0 0.00 0.81 0.80 88 1005.1
20160623211429 83 135 5.0 13.0 0.00 0.81 0.80 87 1004.8
20160623211229 83 134 5.0 13.0 0.00 0.81 0.80 88 1005.0
20160623211129 83 134 5.0 13.0 0.00 0.81 0.80 88 1005.2
20160623211029 83 130 5.0 13.0 0.00 0.81 0.80 88 1005.0
20160623210929 83 128 4.0 13.0 0.00 0.81 0.80 88 1005.0
20160623210829 83 127 6.0 10.0 0.00 0.81 0.80 87 1005.1
20160623210629 83 127 5.0 11.0 0.00 0.81 0.80 87 1005.1
20160623210529 83 127 5.0 11.0 0.00 0.81 0.80 87 1005.2
20160623210429 84 125 5.0 11.0 0.00 0.81 0.80 86 1005.2
20160623210328 84 121 6.0 11.0 0.00 0.81 0.80 86 1005.2
20160623210229 84 124 6.0 11.0 0.00 0.81 0.80 86 1005.1
20160623210029 84 133 6.0 11.0 0.00 0.81 0.80 85 1005.2
20160623205928 84 135 7.0 11.0 0.00 0.81 0.80 85 1005.2
20160623205829 84 131 7.0 11.0 0.00 0.81 0.80 85 1005.1
20160623205528 84 127 2.0 12.0 0.00 0.81 0.80 85 1004.6
20160623205429 84 129 3.0 12.0 0.00 0.81 0.80 83 1004.6
20160623205329 84 133 6.0 12.0 0.00 0.81 0.80 82 1004.4
20160623205229 84 131 5.0 12.0 0.00 0.81 0.80 82 1004.5
20160623205129 84 130 6.0 12.0 0.00 0.81 0.80 82 1004.5
20160623204929 85 124 5.0 12.0 0.00 0.81 0.80 83 1004.4
20160623204728 84 132 4.0 12.0 0.00 0.81 0.80 83 1004.5
20160623204529 84 137 8.0 14.0 0.00 0.81 0.80 83 1004.7
20160623204429 84 140 6.0 16.0 0.00 0.81 0.80 84 1005.1
20160623204328 85 145 5.0 16.0 0.00 0.81 0.80 84 1004.8
20160623204228 84 147 3.0 16.0 0.00 0.81 0.80 84 1004.8
20160623204129 85 148 5.0 16.0 0.00 0.81 0.80 83 1005.0
20160623204029 85 149 3.0 16.0 0.00 0.81 0.80 82 1005.1
20160623203629 85 152 7.0 16.0 0.00 0.81 0.80 81 1005.2
20160623203229 85 151 3.0 13.0 0.00 0.81 0.80 81 1005.1
20160623203129 86 153 6.0 13.0 0.00 0.81 0.80 82 1005.2
20160623202828 85 152 3.0 13.0 0.00 0.81 0.80 82 1004.9
20160623202629 85 156 7.0 13.0 0.00 0.81 0.80 81 1004.8
20160623202529 85 161 7.0 13.0 0.00 0.81 0.80 82 1004.8
20160623202229 85 153 3.0 12.0 0.00 0.81 0.80 80 1004.6
20160623202129 85 151 4.0 12.0 0.00 0.81 0.80 80 1004.7